Zurück zum Katalog

ONEWEB-0309

AktivKommunikationPO
NORAD 49095·PAYLOAD·🇬🇧 United Kingdom

Gestartet Aug 21, 2021 von Baikonur Cosmodrome

Loading…

Nächste Überflüge (nächste 24 Stunden)

TLE

AktuellSource: CelesTrak SupGP

Epoche: Sep 14, 2026, 13:34 UTC

1 49095C 21075W   26257.56546713  .00001807  00000+0  46606-2 0  2577
2 49095  87.9208 348.1130 0001408  99.3408  12.8256 13.17647369    11

Verfolge ONEWEB-0309 in Echtzeit mit AllMySat

Download on the App Store